Regional Weather Roundup
Issued by NWS

Home | Current Version | Previous Version | Text Only | Print | Product List | Glossary On
Versions: 1 2 3 4 5 6 7 8 9 10 11 12 13 14 15 16 17 18 19 20 21 22 23 24 25 26 27 28 29 30 31 32 33 34 35 36 37 38 39 40 41 42 43 44 45 46 47 48 49 50
000
ASCA42 TJSJ 261911
RWRPR
PUERTO RICO/U.S. VIRGIN ISLANDS HOURLY WEATHER ROUNDUP
NATIONAL WEATHER SERVICE SAN JUAN PR
300 PM AST SAT JUL 26 2014

PRZ001-004-262000-
PUERTO RICO

CITY           SKY/WX    TMP DP  RH WIND       PRES   REMARKS
SAN JUAN LMM   MOSUNNY   88  75  66 NE18      30.03S HX  97
PONCE          MOSUNNY   91  75  59 S12G17    29.97  HX 102
AGUADILLA      MOSUNNY   86  75  70 E24G31    30.03F HX  95
CEIBA          MOSUNNY   88  73  62 E8G20     30.06F HX  96
$$

PRZ006-007-262000-
U.S. VIRGIN ISLANDS

CITY           SKY/WX    TMP DP  RH WIND       PRES   REMARKS
CHARLOTTE AMA  PTSUNNY   88  75  66 E18       30.02F HX  97
CHRISTIANSTED  MOSUNNY   88  73  62 E16       30.02F HX  96
$$

HOURLY WEATHER ROUNDUP FOR THE NEWS MEDIA

CITY           SKY/WX    TMP DP  RH WIND       PRES   REMARKS
MIAMI          TSTM      75  69  81 SW6G20    30.14R
ORLANDO        LGT RAIN  84  75  74 SE8       30.07F HX  92
NEW YORK       PTSUNNY   79  63  57 S10       29.97S
NEWARK         CLOUDY    80  61  52 S13G18    29.94F
CHICAGO        PTSUNNY   81  65  58 S7        29.78F
HARTFORD       PTSUNNY   77  61  57 SW14      29.93F
BOSTON         PTSUNNY   83  53  35 SW14G22   29.89F
DALLAS         MOSUNNY   98  65  33 SW7       29.96F HX 101
PHILADELPHIA   PTSUNNY   78  69  73 VRB3      29.96F



USA.gov is the U.S. government's official web portal to all federal, state and local government web resources and services.